Retour au catalogue

FENGYUN 1C DEB

ActifSSO
NORAD 37019·DEBRIS·🇨🇳 China

Lancé May 10, 1999 depuis Taiyuan Satellite Launch Center

Loading…

Prochains Passages (prochaines 24 heures)

TLE

FraisSource: Space-Track

Époque: Sep 11, 2026, 11:39 UTC

1 37019U 99025EDB 26254.48545672  .00001669  00000-0  50148-3 0  9998
2 37019  98.5710 342.0546 0166287 236.5506 121.9688 14.36380023686749

Suivez FENGYUN 1C DEB en temps réel avec AllMySat

Download on the App Store